| time (UTC) | temp C | wind direction | speed KPH | gust KPH | rain 1hr cm | rain 24hr cm | rain mn cm | humidity % | barometer mb |
| 20260507094541 | 12 | 295 | 16.1 | 30.6 | 0.00 | 0.00 | 0.00 | 60 | 1014.7 |
| 20260507093054 | 12 | 291 | 17.7 | 37.0 | 0.00 | 0.00 | 0.00 | 62 | 1014.4 |
| 20260507091547 | 12 | 294 | 16.1 | 32.2 | 0.00 | 0.00 | 0.00 | 62 | 1014.5 |
| 20260507090100 | 12 | 266 | 16.1 | 30.6 | 0.00 | 0.00 | 0.00 | 63 | 1014.4 |
| 20260507084644 | 12 | 291 | 16.1 | 40.2 | 0.00 | 0.00 | 0.00 | 65 | 1014.3 |
| 20260507083056 | 12 | 277 | 9.7 | 22.5 | 0.00 | 0.00 | 0.00 | 65 | 1014.5 |
| 20260507081548 | 12 | 323 | 11.3 | 27.4 | 0.00 | 0.00 | 0.00 | 64 | 1014.6 |
| 20260507080043 | 12 | 355 | 11.3 | 22.5 | 0.00 | 0.00 | 0.00 | 64 | 1014.3 |
| 20260507074550 | 12 | 263 | 6.4 | 16.1 | 0.00 | 0.00 | 0.00 | 64 | 1014.0 |
| 20260507073039 | 12 | 329 | 8.0 | 25.7 | 0.00 | 0.00 | 0.00 | 65 | 1013.9 |
| 20260507071557 | 12 | 281 | 11.3 | 22.5 | 0.00 | 0.00 | 0.00 | 65 | 1013.8 |
| 20260507070049 | 12 | 272 | 11.3 | 20.9 | 0.00 | 0.00 | 0.00 | 65 | 1013.9 |
| 20260507064559 | 12 | 288 | 9.7 | 29.0 | 0.00 | 0.00 | 0.00 | 65 | 1013.8 |
| 20260507063050 | 12 | 327 | 16.1 | 29.0 | 0.00 | 0.00 | 0.00 | 65 | 1013.9 |
| 20260507061556 | 13 | 315 | 9.7 | 29.0 | 0.00 | 0.00 | 0.00 | 64 | 1014.1 |
| 20260507060045 | 13 | 345 | 14.5 | 29.0 | 0.00 | 0.00 | 0.00 | 65 | 1014.0 |
| 20260507054557 | 13 | 321 | 16.1 | 33.8 | 0.00 | 0.00 | 0.00 | 65 | 1014.0 |
| 20260507053049 | 13 | 328 | 12.9 | 30.6 | 0.00 | 0.00 | 0.00 | 64 | 1014.0 |
| 20260507051543 | 13 | 348 | 12.9 | 24.1 | 0.00 | 0.00 | 0.00 | 65 | 1014.4 |
| 20260507050052 | 13 | 343 | 9.7 | 27.4 | 0.00 | 0.00 | 0.00 | 64 | 1014.6 |
| 20260507044541 | 13 | 319 | 11.3 | 29.0 | 0.00 | 0.00 | 0.00 | 64 | 1014.6 |
| 20260507043052 | 13 | 319 | 9.7 | 25.7 | 0.00 | 0.00 | 0.00 | 63 | 1014.6 |
| 20260507041541 | 13 | 327 | 11.3 | 19.3 | 0.00 | 0.00 | 0.00 | 63 | 1014.4 |
| 20260507040057 | 14 | 309 | 4.8 | 24.1 | 0.00 | 0.00 | 0.00 | 62 | 1014.1 |
| 20260507034548 | 14 | 284 | 12.9 | 29.0 | 0.00 | 0.00 | 0.00 | 61 | 1013.6 |
| 20260507033059 | 14 | 283 | 11.3 | 29.0 | 0.00 | 0.00 | 0.00 | 61 | 1013.3 |
| 20260507031545 | 15 | 312 | 16.1 | 33.8 | 0.00 | 0.00 | 0.00 | 59 | 1013.2 |
| 20260507030043 | 16 | 265 | 16.1 | 35.4 | 0.00 | 0.00 | 0.00 | 57 | 1013.2 |
| 20260507024603 | 16 | 284 | 12.9 | 32.2 | 0.00 | 0.00 | 0.00 | 55 | 1013.4 |
| 20260507023048 | 17 | 313 | 8.0 | 25.7 | 0.00 | 0.00 | 0.00 | 54 | 1013.5 |
| 20260507021552 | 17 | 336 | 9.7 | 20.9 | 0.00 | 0.00 | 0.00 | 52 | 1013.6 |
| 20260507020057 | 18 | 360 | 3.2 | 20.9 | 0.00 | 0.00 | 0.00 | 50 | 1013.3 |
| 20260507014553 | 18 | 261 | 16.1 | 40.2 | 0.00 | 0.00 | 0.00 | 48 | 1013.0 |
| 20260507013056 | 18 | 300 | 16.1 | 33.8 | 0.00 | 0.00 | 0.00 | 46 | 1013.0 |
| 20260507011541 | 18 | 305 | 14.5 | 45.1 | 0.00 | 0.00 | 0.00 | 45 | 1012.7 |
| 20260507010056 | 19 | 316 | 16.1 | 27.4 | 0.00 | 0.00 | 0.00 | 44 | 1012.6 |
| 20260507004554 | 19 | 289 | 11.3 | 25.7 | 0.00 | 0.00 | 0.00 | 44 | 1012.5 |
| 20260507003056 | 20 | 302 | 11.3 | 38.6 | 0.00 | 0.00 | 0.00 | 44 | 1012.5 |
| 20260507001551 | 20 | 248 | 12.9 | 29.0 | 0.00 | 0.00 | 0.00 | 43 | 1012.3 |
| 20260507000156 | 20 | 347 | 14.5 | 38.6 | 0.00 | 0.00 | 0.00 | 43 | 1012.2 |
| 20260506234548 | 20 | 338 | 16.1 | 30.6 | 0.00 | 0.00 | 0.00 | 42 | 1012.0 |
| 20260506233109 | 20 | 286 | 11.3 | 27.4 | 0.00 | 0.00 | 0.00 | 41 | 1012.1 |
| 20260506231556 | 21 | 270 | 9.7 | 24.1 | 0.00 | 0.00 | 0.00 | 41 | 1012.1 |
| 20260506230057 | 21 | 319 | 12.9 | 30.6 | 0.00 | 0.00 | 0.00 | 41 | 1012.1 |
| 20260506224543 | 21 | 298 | 11.3 | 24.1 | 0.00 | 0.00 | 0.00 | 40 | 1012.2 |
| 20260506223044 | 21 | 304 | 12.9 | 25.7 | 0.00 | 0.00 | 0.00 | 41 | 1012.1 |
| 20260506221550 | 22 | 288 | 14.5 | 25.7 | 0.00 | 0.00 | 0.00 | 40 | 1012.1 |
| 20260506220058 | 22 | 288 | 14.5 | 33.8 | 0.00 | 0.00 | 0.00 | 39 | 1012.1 |
| 20260506214553 | 22 | 296 | 20.9 | 41.8 | 0.00 | 0.00 | 0.00 | 39 | 1012.0 |
| 20260506213056 | 23 | 262 | 22.5 | 38.6 | 0.00 | 0.00 | 0.00 | 39 | 1012.0 |
| 20260506211552 | 23 | 275 | 17.7 | 38.6 | 0.00 | 0.00 | 0.00 | 39 | 1011.9 |
| 20260506210043 | 23 | 291 | 17.7 | 33.8 | 0.00 | 0.00 | 0.00 | 38 | 1011.9 |
| 20260506204554 | 23 | 299 | 20.9 | 45.1 | 0.00 | 0.00 | 0.00 | 39 | 1011.9 |
| 20260506203049 | 24 | 321 | 19.3 | 40.2 | 0.00 | 0.00 | 0.00 | 39 | 1011.4 |
| 20260506201541 | 24 | 293 | 16.1 | 48.3 | 0.00 | 0.00 | 0.00 | 39 | 1011.3 |
| 20260506200049 | 23 | 266 | 16.1 | 33.8 | 0.00 | 0.00 | 0.00 | 38 | 1011.3 |
| 20260506194537 | 24 | 274 | 20.9 | 45.1 | 0.00 | 0.00 | 0.00 | 38 | 1011.2 |
| 20260506193049 | 24 | 230 | 22.5 | 48.3 | 0.00 | 0.00 | 0.00 | 38 | 1011.4 |
| 20260506191541 | 24 | 266 | 20.9 | 51.5 | 0.00 | 0.00 | 0.00 | 33 | 1011.5 |
| 20260506190047 | 24 | 271 | 19.3 | 40.2 | 0.00 | 0.00 | 0.00 | 33 | 1011.4 |
| 20260506184606 | 24 | 258 | 16.1 | 41.8 | 0.00 | 0.00 | 0.00 | 35 | 1011.4 |
| 20260506183054 | 23 | 259 | 19.3 | 37.0 | 0.00 | 0.00 | 0.00 | 35 | 1011.6 |
| 20260506181608 | 23 | 286 | 20.9 | 43.5 | 0.00 | 0.00 | 0.00 | 36 | 1011.7 |
| 20260506180049 | 23 | 309 | 19.3 | 37.0 | 0.00 | 0.00 | 0.00 | 37 | 1011.8 |
| 20260506174542 | 22 | 301 | 14.5 | 32.2 | 0.00 | 0.00 | 0.00 | 40 | 1011.8 |
| 20260506173059 | 22 | 315 | 9.7 | 25.7 | 0.00 | 0.00 | 0.00 | 43 | 1011.8 |
| 20260506171542 | 21 | 289 | 14.5 | 29.0 | 0.00 | 0.00 | 0.00 | 45 | 1012.0 |
| 20260506170055 | 21 | 281 | 9.7 | 27.4 | 0.00 | 0.00 | 0.00 | 46 | 1012.1 |
| 20260506164544 | 20 | 309 | 16.1 | 30.6 | 0.00 | 0.00 | 0.00 | 45 | 1012.2 |
| 20260506163055 | 20 | 275 | 16.1 | 30.6 | 0.00 | 0.00 | 0.00 | 46 | 1012.3 |
| 20260506161548 | 19 | 302 | 12.9 | 33.8 | 0.00 | 0.00 | 0.00 | 48 | 1012.3 |
| 20260506154550 | 18 | 283 | 12.9 | 25.7 | 0.00 | 0.00 | 0.00 | 51 | 1012.6 |
| 20260506153113 | 17 | 349 | 11.3 | 24.1 | 0.00 | 0.00 | 0.00 | 53 | 1012.6 |
| 20260506151544 | 17 | 321 | 11.3 | 29.0 | 0.00 | 0.00 | 0.00 | 56 | 1012.8 |
| 20260506150100 | 17 | 272 | 11.3 | 20.9 | 0.00 | 0.00 | 0.00 | 56 | 1012.7 |
| 20260506144554 | 16 | 267 | 6.4 | 17.7 | 0.00 | 0.00 | 0.00 | 58 | 1012.8 |
| 20260506143043 | 16 | 269 | 8.0 | 24.1 | 0.00 | 0.00 | 0.00 | 60 | 1012.8 |
| 20260506141552 | 15 | 298 | 8.0 | 22.5 | 0.00 | 0.00 | 0.00 | 61 | 1012.8 |
| 20260506140044 | 15 | 271 | 9.7 | 22.5 | 0.00 | 0.00 | 0.00 | 63 | 1012.8 |
| 20260506134538 | 14 | 215 | 9.7 | 17.7 | 0.00 | 0.00 | 0.00 | 66 | 1012.9 |
| 20260506133050 | 13 | 229 | 1.6 | 6.4 | 0.00 | 0.00 | 0.00 | 69 | 1012.8 |
| 20260506131546 | 13 | 266 | 6.4 | 14.5 | 0.00 | 0.00 | 0.00 | 68 | 1012.6 |
| 20260506130049 | 13 | 280 | 6.4 | 12.9 | 0.00 | 0.00 | 0.00 | 67 | 1012.7 |
| 20260506124540 | 13 | 250 | 1.6 | 16.1 | 0.00 | 0.00 | 0.00 | 67 | 1012.6 |
| 20260506123052 | 14 | 271 | 3.2 | 14.5 | 0.00 | 0.00 | 0.00 | 65 | 1012.6 |
| 20260506121542 | 14 | 275 | 3.2 | 19.3 | 0.00 | 0.00 | 0.00 | 65 | 1012.5 |
| 20260506120052 | 14 | 270 | 4.8 | 11.3 | 0.00 | 0.00 | 0.00 | 65 | 1012.4 |
| 20260506114538 | 14 | 255 | 3.2 | 11.3 | 0.00 | 0.00 | 0.00 | 63 | 1012.3 |
| 20260506113055 | 15 | 304 | 8.0 | 17.7 | 0.00 | 0.00 | 0.00 | 63 | 1012.3 |
| 20260506111647 | 15 | 279 | 4.8 | 19.3 | 0.00 | 0.00 | 0.00 | 63 | 1012.2 |
| 20260506110054 | 14 | 269 | 4.8 | 12.9 | 0.00 | 0.00 | 0.00 | 63 | 1012.1 |
| 20260506104543 | 15 | 305 | 3.2 | 11.3 | 0.00 | 0.00 | 0.00 | 62 | 1012.1 |
| 20260506103055 | 15 | 252 | 3.2 | 11.3 | 0.00 | 0.00 | 0.00 | 60 | 1011.9 |
| 20260506101541 | 15 | 268 | 3.2 | 14.5 | 0.00 | 0.00 | 0.00 | 59 | 1011.8 |
| 20260506100055 | 15 | 284 | 8.0 | 16.1 | 0.00 | 0.00 | 0.00 | 58 | 1011.6 |